Le nostre stazioni meteo in Italia

Pubblicità
Il mio iltempo24.it
Lampedusa, Italia (16490): Temperatura & dewpoint: 10.01.2017 15:00:00 - 16.01.2017 15:00:00 (CET)Lampedusa, Italia (16490): velocità del vento: 10.01.2017 15:00:00 - 16.01.2017 15:00:00 (CET)Lampedusa, Italia (16490): direzione del vento: 10.01.2017 15:00:00 - 16.01.2017 15:00:00 (CET)Lampedusa, Italia (16490): visibility: 10.01.2017 15:00:00 - 16.01.2017 15:00:00 (CET)
Data & Tempo tt [°C] td [°C] ff [km/h] ff [kn] dd vv [km]
16.01.2017 15:00:00 12,0 5,0 29 16 O 10
16.01.2017 14:00:00 12,0 5,0 21 11 O 10
16.01.2017 13:00:00 12,0 6,0 28 15 O 10
16.01.2017 12:00:00 12,0 6,0 31 17 O 10
16.01.2017 11:00:00 11,0 5,0 22 12 ONO 10
16.01.2017 10:00:00 11,0 5,0 29 16 ONO 10
16.01.2017 09:00:00 10,0 6,0 31 17 ONO 10
16.01.2017 08:00:00 11,0 5,0 37 20 ONO 10
16.01.2017 07:00:00 10,0 4,0 29 16 ONO 10
16.01.2017 06:00:00 10,0 5,0 26 14 O 10
16.01.2017 05:00:00 - - - - - -
16.01.2017 04:00:00 - - - - - -
16.01.2017 03:00:00 - - - - - -
16.01.2017 02:00:00 - - - - - -
16.01.2017 01:00:00 - - - - - -
16.01.2017 00:00:00 - - - - - -
15.01.2017 23:00:00 - - - - - -
15.01.2017 22:00:00 - - - - - -
15.01.2017 21:00:00 11,0 0,0 42 23 O 10
15.01.2017 20:00:00 11,0 3,0 21 11 O 10
15.01.2017 19:00:00 11,0 4,0 22 12 O 10
15.01.2017 18:00:00 11,0 4,0 24 13 ONO 10
15.01.2017 17:00:00 11,0 3,0 31 17 O 10
15.01.2017 16:00:00 12,0 3,0 31 17 O 10
15.01.2017 15:00:00 12,0 3,0 24 13 O 10
15.01.2017 14:00:00 12,0 4,0 29 16 SO 10
15.01.2017 13:00:00 11,0 4,0 26 14 ONO 10
15.01.2017 12:00:00 12,0 5,0 26 14 ONO 10
15.01.2017 11:00:00 12,0 6,0 28 15 ONO 10
15.01.2017 10:00:00 11,0 6,0 29 16 ONO 10
15.01.2017 09:00:00 9,0 6,0 16 9 ONO 9
15.01.2017 08:00:00 10,0 6,0 22 12 ONO 10
15.01.2017 07:00:00 9,0 7,0 5 3 ONO 10
15.01.2017 06:00:00 9,0 7,0 4 2 S 10
15.01.2017 05:00:00 - - - - - -
15.01.2017 04:00:00 - - - - - -
15.01.2017 03:00:00 - - - - - -
15.01.2017 02:00:00 - - - - - -
15.01.2017 01:00:00 - - - - - -
15.01.2017 00:00:00 - - - - - -
14.01.2017 23:00:00 - - - - - -
14.01.2017 22:00:00 - - - - - -
14.01.2017 21:00:00 12,0 5,0 9 5 ONO 10
14.01.2017 20:00:00 12,0 5,0 13 7 ONO 10
14.01.2017 19:00:00 12,0 6,0 5 3 ONO 10
14.01.2017 18:00:00 12,0 6,0 13 7 NNO 10
14.01.2017 17:00:00 12,0 5,0 21 11 NO 10
14.01.2017 16:00:00 13,0 6,0 18 10 ONO 10
14.01.2017 15:00:00 13,0 6,0 21 11 ONO 10
14.01.2017 14:00:00 14,0 6,0 26 14 NO 10
14.01.2017 13:00:00 14,0 6,0 24 13 ONO 10
14.01.2017 12:00:00 13,0 5,0 21 11 O 10
14.01.2017 11:00:00 13,0 6,0 22 12 ONO 10
14.01.2017 10:00:00 14,0 6,0 22 12 ONO 10
14.01.2017 09:00:00 13,0 6,0 21 11 NO 10
14.01.2017 08:00:00 13,0 6,0 22 12 NO 10
14.01.2017 07:00:00 13,0 4,0 22 12 NO 10
14.01.2017 06:00:00 13,0 4,0 18 10 NNO 10
14.01.2017 05:00:00 - - - - - -
14.01.2017 04:00:00 - - - - - -
14.01.2017 03:00:00 - - - - - -
14.01.2017 02:00:00 - - - - - -
14.01.2017 01:00:00 - - - - - -
14.01.2017 00:00:00 15,0 11,0 22 12 NO 10
13.01.2017 23:00:00 - - - - - -
13.01.2017 22:00:00 15,0 9,0 24 13 O 10
13.01.2017 21:00:00 15,0 9,0 29 16 OSO 10
13.01.2017 20:00:00 15,0 8,0 35 19 OSO 10
13.01.2017 19:00:00 15,0 9,0 35 19 OSO 10
13.01.2017 18:00:00 15,0 8,0 39 21 SO 10
13.01.2017 17:00:00 14,0 10,0 39 21 SO 10
13.01.2017 16:00:00 15,0 10,0 41 22 SO 10
13.01.2017 15:00:00 15,0 12,0 34 18 SO 10
13.01.2017 14:00:00 15,0 12,0 39 21 SO 10
13.01.2017 13:00:00 16,0 12,0 26 14 OSO 10
13.01.2017 12:00:00 16,0 11,0 31 17 SO 10
13.01.2017 11:00:00 16,0 10,0 29 16 SO 10
13.01.2017 10:00:00 15,0 10,0 29 16 SSO 10
13.01.2017 09:00:00 15,0 9,0 29 16 SO 10
13.01.2017 08:00:00 14,0 9,0 26 14 SSO 10
13.01.2017 07:00:00 14,0 10,0 21 11 SSO 10
13.01.2017 06:00:00 14,0 10,0 21 11 SO 10
13.01.2017 05:00:00 - - - - - -
13.01.2017 04:00:00 - - - - - -
13.01.2017 03:00:00 - - - - - -
13.01.2017 02:00:00 - - - - - -
13.01.2017 01:00:00 - - - - - -
13.01.2017 00:00:00 - - - - - -
12.01.2017 23:00:00 - - - - - -
12.01.2017 22:00:00 - - - - - -
12.01.2017 21:00:00 13,0 7,0 5 3 E 10
12.01.2017 20:00:00 13,0 7,0 11 6 NNE 10
12.01.2017 19:00:00 14,0 6,0 15 8 NNE 10
12.01.2017 18:00:00 14,0 2,0 13 7 N 10
12.01.2017 17:00:00 14,0 8,0 16 9 NNE 10
12.01.2017 16:00:00 14,0 9,0 18 10 NNE 10
12.01.2017 15:00:00 14,0 10,0 22 12 NNE 10
12.01.2017 14:00:00 14,0 9,0 24 13 NNE 10
12.01.2017 13:00:00 14,0 9,0 28 15 NNE 10
12.01.2017 12:00:00 15,0 10,0 18 10 NNE 10
12.01.2017 11:00:00 - - - - - -
12.01.2017 10:00:00 15,0 10,0 5 3 NE 10
12.01.2017 09:00:00 15,0 10,0 8 4 ENE 10
12.01.2017 08:00:00 14,0 10,0 8 4 NE 10
12.01.2017 07:00:00 13,0 9,0 8 4 N 10
12.01.2017 06:00:00 13,0 9,0 8 4 N 10
12.01.2017 05:00:00 - - - - - -
12.01.2017 04:00:00 - - - - - -
12.01.2017 03:00:00 - - - - - -
12.01.2017 02:00:00 - - - - - -
12.01.2017 01:00:00 - - - - - -
12.01.2017 00:00:00 - - - - - -
11.01.2017 23:00:00 - - - - - -
11.01.2017 22:00:00 - - - - - -
11.01.2017 21:00:00 12,0 6,0 8 4 O 10
11.01.2017 20:00:00 13,0 6,0 5 3 O 10
11.01.2017 19:00:00 13,0 7,0 15 8 OSO 10
11.01.2017 18:00:00 13,0 7,0 13 7 OSO 10
11.01.2017 17:00:00 13,0 6,0 13 7 OSO 10
11.01.2017 16:00:00 14,0 7,0 13 7 O 10
11.01.2017 15:00:00 14,0 6,0 11 6 O 10
11.01.2017 14:00:00 14,0 7,0 16 9 OSO 10
11.01.2017 13:00:00 14,0 6,0 21 11 OSO 10
11.01.2017 12:00:00 14,0 7,0 21 11 OSO 10
11.01.2017 11:00:00 14,0 6,0 18 10 SO 10
11.01.2017 10:00:00 14,0 6,0 18 10 SO 10
11.01.2017 09:00:00 13,0 6,0 22 12 O 10
11.01.2017 08:00:00 13,0 6,0 24 13 OSO 10
11.01.2017 07:00:00 13,0 6,0 24 13 OSO 10
11.01.2017 06:00:00 13,0 6,0 24 13 OSO 10
11.01.2017 05:00:00 - - - - - -
11.01.2017 04:00:00 - - - - - -
11.01.2017 03:00:00 - - - - - -
11.01.2017 02:00:00 - - - - - -
11.01.2017 01:00:00 - - - - - -
11.01.2017 00:00:00 - - - - - -
10.01.2017 23:00:00 - - - - - -
10.01.2017 22:00:00 - - - - - -
10.01.2017 21:00:00 14,0 7,0 31 17 OSO 10
10.01.2017 20:00:00 13,0 7,0 35 19 OSO 10
10.01.2017 19:00:00 13,0 6,0 35 19 OSO 10
10.01.2017 18:00:00 13,0 7,0 31 17 O 10
10.01.2017 17:00:00 13,0 8,0 34 18 OSO 10
10.01.2017 16:00:00 13,0 6,0 37 20 OSO 10
10.01.2017 15:00:00 13,0 4,0 35 19 OSO 10

tt = Temperatura
td = dewpoint
ff = velocità del vento
dd = direzione del vento
vv = visibility

Stazioni seguenti

WeatherPro
AMSI
MeteoEarth